This is the latest recevied weather packets stored in our database for station/object K4IR. If no packets are shown the sender has not sent any weather packets the latest 10 day(s).
| Time | Temp. | Humidity | Pressure | Rain* | Wind** | Luminosity | Snow |
|---|---|---|---|---|---|---|---|
| 1787831029 | 22.78° C | 99% | 1017 hPa | 0 mm | - | 27 W/m² | - |
| 1787830427 | 22.78° C | 99% | 1016.9 hPa | 0.51 mm | - | 28 W/m² | - |
| 1787829827 | 22.78° C | 99% | 1016.7 hPa | 1.27 mm | - | 12 W/m² | - |
| 1787829223 | 22.78° C | 99% | 1016.9 hPa | 0 mm | - | 7 W/m² | - |
| 1787828620 | 22.78° C | 99% | 1016.7 hPa | 2.29 mm | - | 4 W/m² | - |
| 1787828019 | 22.78° C | 99% | 1016.8 hPa | 1.78 mm | - | 1 W/m² | - |
| 1787827416 | 22.78° C | 99% | 1016.4 hPa | 0 mm | - | 0 W/m² | - |
| 1787826814 | 22.78° C | 99% | 1016.6 hPa | 0 mm | - | 0 W/m² | - |
| 1787826211 | 22.78° C | 99% | 1016.5 hPa | 0 mm | - | 0 W/m² | - |
| 1787825606 | 22.22° C | 99% | 1016.7 hPa | 0 mm | - | 0 W/m² | - |
| 1787825004 | 22.78° C | 99% | 1016.5 hPa | 0 mm | - | 0 W/m² | - |
| 1787824403 | 22.22° C | 99% | 1016.5 hPa | 0 mm | - | 0 W/m² | - |
| 1787823800 | 22.22° C | 99% | 1016.3 hPa | 0 mm | - | 0 W/m² | - |
| 1787823200 | 22.22° C | 99% | 1016 hPa | 1.27 mm | - | 0 W/m² | - |
| 1787822598 | 22.22° C | 99% | 1016.2 hPa | 8.38 mm | - | 0 W/m² | - |
| 1787821994 | 22.22° C | 99% | 1016.6 hPa | 7.11 mm | - | 0 W/m² | - |
| 1787821393 | 21.67° C | 99% | 1016.5 hPa | 0 mm | - | 0 W/m² | - |
| 1787820793 | 21.67° C | 99% | 1016.7 hPa | 0 mm | - | 0 W/m² | - |
| 1787820189 | 22.22° C | 99% | 1016.5 hPa | 0 mm | - | 0 W/m² | - |
| 1787819585 | 22.22° C | 99% | 1016.6 hPa | 0 mm | - | 0 W/m² | - |
| 1787818980 | 22.22° C | 99% | 1016.4 hPa | 0 mm | - | 0 W/m² | - |
| 1787818381 | 22.22° C | 99% | 1016.4 hPa | 0 mm | - | 0 W/m² | - |
| 1787817780 | 21.67° C | 99% | 1016.4 hPa | 0 mm | - | 0 W/m² | - |
| 1787817179 | 21.67° C | 99% | 1016.4 hPa | 0 mm | - | 0 W/m² | - |
| 1787816580 | 21.67° C | 99% | 1016.4 hPa | 0 mm | - | 0 W/m² | - |
* Rain latest hour (hover to see other rain measurements)
** Current wind speed in m/s (hover to see current wind gust speed)